{"data":{"norad_id":66076,"intl_designator":"2025-235U","name":"STARLINK-34801","alt_names":[],"object_type":"PAYLOAD","status":"ACTIVE","operator":null,"country":"US","launch_date":"2025-10-19","launch_site_code":"AFETR","launch_vehicle":null,"mission":null,"orbit_class":"UNKNOWN","rcs_meters":null,"size_class":null,"mass_kg":null,"dimensions":null,"purposes":["comms"],"wikipedia_slug":null,"has_3d_model":false,"image_url":null,"decayed_at":null,"tle_current":{"epoch":"2026-09-20T14:36:14.361120Z","epoch_age_seconds":93627,"freshness":"FRESH","line1":"1 66076U 25235U   26263.60849955  .00011923  00000+0  36346-3 0  9997","line2":"2 66076  53.1594  59.2404 0001151  89.0302 271.0832 15.34398536 52779","mean_motion":15.34398536,"eccentricity":0.0001151,"inclination_deg":53.1594,"raan_deg":59.2404,"arg_perigee_deg":89.0302,"mean_anomaly_deg":271.0832,"bstar":0.00036346,"rev_number":5277,"period_min":93.847847623337,"perigee_km":461.9202103146,"apogee_km":463.49497273957,"semimajor_km":6840.8445915271,"source":"CELESTRAK","updated_at":"2026-09-21T09:00:35.797818Z"}}}